Retour au catalogue

COSMOS 985

ActifMilitairePO
NORAD 10599·PAYLOAD·🇷🇺 Russia

Lancé Jan 17, 1978 depuis Plesetsk Cosmodrome

Loading…

Prochains Passages (prochaines 24 heures)

TLE

FraisSource: Space-Track

Époque: Sep 14, 2026, 10:03 UTC

1 10599U 78007A   26257.41913423  .00000058  00000-0  43197-4 0  9996
2 10599  82.9430 322.0484 0051676 304.8642  54.7662 13.76936918444158

Suivez COSMOS 985 en temps réel avec AllMySat

Download on the App Store